Wind_Speed
45 44 43 43 42 42 42 42 42 41 40 40 40 40 39 38 38 38 38 38 37 36 35 34 34 34 35 34 33 32 32 32 32 32 33 34 36 38
45 44 43 42 42 42 42 42 41 41 40 40 39 38 38 38 38 38 37 37 36 35 34 33 33 33 33 33 32 32 32 31 32 33 34 34 34 36
44 43 42 42 42 42 42 41 41 40 39 39 38 37 37 37 37 37 37 36 35 34 34 34 33 33 32 32 32 32 32 33 33 34 35 35 36 37
43 42 41 41 41 41 41 40 39 39 38 37 37 37 36 36 37 37 36 35 34 34 34 34 34 33 33 33 33 33 34 35 36 36 36 37 38 38
42 41 40 40 40 39 39 38 38 38 37 37 36 36 36 36 36 36 35 34 34 34 34 34 34 34 34 34 35 36 36 37 38 39 39 39 39 40
41 40 39 39 38 38 37 37 37 36 36 36 35 36 36 36 35 35 35 35 35 35 35 35 36 36 36 37 38 38 39 39 40 40 41 42 42 43
39 39 39 38 37 37 36 36 35 35 35 35 35 35 35 35 35 35 35 35 35 36 36 37 37 38 38 39 40 40 41 41 42 42 43 44 44 45
39 38 37 36 36 36 35 34 34 34 34 34 35 35 35 34 34 35 35 36 36 37 38 38 39 40 40 41 41 42 43 43 44 44 45 45 46 47
37 37 36 35 35 35 34 34 34 34 34 34 34 34 34 34 35 35 36 37 38 38 39 40 40 41 42 43 43 43 43 44 45 45 46 47 47 48
36 35 35 35 34 33 33 33 33 34 33 33 34 34 34 35 36 36 37 38 39 39 40 41 42 43 44 44 44 45 45 45 46 46 46 47 47 47
35 34 34 33 33 33 33 33 33 33 33 33 34 34 35 36 37 37 38 39 40 41 41 43 44 45 46 46 46 47 47 47 46 46 46 47 47 47
34 33 33 32 32 33 33 33 33 33 33 34 34 34 35 36 37 38 39 40 40 41 43 44 45 46 47 48 48 48 48 47 46 45 46 46 46 47
32 32 32 32 32 32 32 32 33 33 33 34 34 36 37 37 38 39 40 41 42 43 44 45 46 47 47 48 48 49 48 46 45 45 45 45 45 45
31 31 31 31 32 32 32 32 33 33 34 35 36 37 37 38 39 40 41 42 43 44 45 46 46 47 47 48 48 49 47 46 45 44 44 44 44 44
30 31 31 31 31 31 32 33 34 34 35 36 37 37 38 39 39 40 42 43 44 45 45 46 47 47 47 47 48 47 46 46 45 43 42 42 41 40
31 31 31 31 31 32 33 34 34 35 36 37 38 38 39 39 40 41 43 44 45 45 45 46 47 47 47 47 46 46 45 44 44 43 42 41 40 38
31 31 31 31 32 33 34 35 35 36 37 38 38 39 39 40 41 42 44 45 45 45 46 46 47 47 46 46 46 45 45 44 43 42 40 39 38 37
31 31 32 32 33 34 35 36 36 37 38 38 39 39 40 41 42 43 44 45 45 46 47 47 46 46 45 45 46 45 44 43 41 40 38 36 36 36
32 32 33 34 35 35 36 37 37 38 38 39 39 40 41 43 44 45 45 46 46 46 47 46 45 45 44 44 44 45 43 41 39 38 36 34 34 35
33 34 35 35 36 37 37 38 38 38 39 40 41 42 43 44 45 45 46 46 46 46 46 46 45 44 43 43 42 43 43 40 38 36 35 33 32 32
35 35 36 37 37 38 38 39 39 40 40 41 42 43 43 44 45 46 46 46 46 45 45 45 45 44 43 42 41 41 41 40 37 35 33 32 31 31
36 37 37 37 38 39 39 40 40 41 41 42 43 44 44 45 46 46 45 45 45 45 44 45 45 44 44 42 41 39 39 39 37 35 33 31 29 28
37 37 38 39 40 40 41 41 41 42 42 43 43 44 45 46 46 46 45 45 44 44 44 45 45 45 44 43 41 39 39 38 36 35 34 32 29 27
Wind_Direction
282 283 284 285 287 288 288 290 291 292 292 292 293 294 294 295 296 297 297 298 298 298 297 298 299 298 297 295 294 290 290 286 283 282 278 274 271 268
281 282 283 284 285 287 288 289 290 291 292 292 292 292 293 295 296 297 297 297 298 297 297 299 299 298 297 296 294 292 290 287 285 284 281 277 274 270
279 281 281 282 284 286 287 289 290 290 291 291 291 292 293 295 296 297 297 297 297 297 297 298 298 298 297 296 294 292 290 287 285 284 282 279 276 272
278 279 280 282 284 285 286 287 288 289 290 290 291 292 293 295 296 297 297 296 297 297 297 298 297 297 297 296 294 292 290 288 287 286 282 280 277 273
276 278 279 282 283 284 286 286 287 288 289 290 291 292 293 294 295 296 296 296 297 297 298 298 297 296 296 295 294 292 290 289 287 286 284 281 278 275
276 277 279 281 283 284 285 285 287 288 289 290 291 292 293 294 295 296 296 297 297 298 298 298 298 297 297 296 295 293 292 290 288 286 284 282 279 277
275 277 279 280 281 282 283 285 286 288 289 291 292 292 293 294 295 295 296 297 297 298 299 299 298 298 297 297 296 294 293 292 290 288 285 283 281 278
274 276 278 279 280 282 283 285 286 288 289 291 291 292 294 295 295 296 297 297 298 299 299 300 299 299 298 298 296 295 294 292 291 289 287 284 282 279
273 275 276 277 279 281 283 284 286 288 289 291 292 293 294 295 296 297 298 298 299 299 300 300 300 300 299 298 297 296 294 293 292 290 288 285 283 280
272 274 276 277 278 281 283 284 286 287 289 290 291 293 294 295 296 297 298 299 300 300 301 301 301 301 300 299 298 296 295 294 293 290 288 286 284 280
271 273 275 276 278 281 283 284 286 287 289 290 291 293 295 296 297 298 299 300 301 301 302 302 303 302 302 300 299 297 296 295 293 292 289 287 285 282
270 271 274 276 279 280 283 284 286 287 289 291 292 294 296 297 298 299 300 301 302 302 303 304 304 304 303 301 300 299 298 296 294 293 291 289 286 283
269 271 274 276 278 281 283 285 286 288 289 291 293 295 296 298 299 300 301 302 302 303 304 305 305 305 304 303 302 301 299 297 295 294 292 290 287 284
270 272 274 277 279 281 284 286 287 289 291 293 295 296 297 298 299 300 301 302 303 305 305 306 306 306 306 304 303 302 301 299 297 295 293 291 288 285
270 272 274 277 279 282 285 287 289 290 292 294 296 297 298 299 300 301 302 303 304 305 306 307 307 308 307 306 305 303 302 300 299 297 296 293 290 286
270 272 274 276 280 283 286 288 290 292 293 295 296 297 298 299 300 302 303 304 305 306 307 307 308 309 308 307 305 304 303 301 300 298 296 294 291 287
271 273 275 277 281 284 287 289 291 292 294 295 296 297 298 299 301 303 304 305 305 306 307 308 309 310 309 308 306 305 303 302 301 299 297 295 292 288
271 273 276 279 282 285 288 290 292 293 294 295 296 297 298 300 302 303 304 305 305 306 308 309 309 310 310 309 308 306 305 304 302 300 298 295 292 289
271 274 277 280 284 287 289 291 292 293 294 295 296 297 299 300 302 303 304 305 305 306 308 309 310 310 310 310 308 307 307 306 304 302 299 296 293 290
273 275 279 282 285 288 289 291 292 293 294 295 296 298 299 301 302 303 304 305 305 306 307 309 310 310 311 311 309 308 308 307 306 304 301 298 295 291
274 277 280 283 286 288 290 291 292 293 294 295 297 298 300 301 302 303 304 305 305 306 307 308 310 310 311 311 310 308 308 308 307 305 302 299 296 293
276 278 280 283 286 288 290 291 293 293 295 296 298 299 300 302 303 303 304 304 305 305 306 308 309 310 310 311 309 308 306 306 307 306 304 301 297 293
277 279 281 283 286 288 290 291 292 293 295 296 298 299 300 302 303 303 304 304 304 305 306 307 308 309 309 309 308 307 305 304 304 304 304 303 300 294
Height
5765 5763 5761 5759 5756 5754 5751 5748 5745 5742 5739 5735 5732 5728 5724 5721 5718 5714 5711 5707 5704 5700 5696 5693 5689 5685 5682 5678 5674 5672 5669 5667 5666 5664 5664 5663 5664 5664
5755 5753 5751 5749 5746 5744 5741 5738 5735 5732 5729 5726 5722 5719 5716 5712 5709 5705 5702 5698 5695 5691 5688 5684 5681 5677 5674 5670 5667 5664 5662 5660 5658 5656 5655 5654 5654 5654
5744 5742 5741 5739 5737 5734 5731 5728 5725 5722 5720 5717 5713 5710 5707 5704 5700 5696 5693 5690 5686 5683 5679 5676 5672 5669 5666 5663 5659 5657 5654 5652 5650 5648 5646 5645 5644 5644
5734 5732 5730 5728 5726 5724 5721 5719 5716 5713 5710 5707 5704 5701 5698 5695 5691 5688 5684 5681 5678 5674 5671 5667 5664 5661 5657 5654 5651 5648 5646 5643 5641 5639 5637 5635 5634 5633
5723 5722 5720 5718 5716 5714 5711 5709 5706 5704 5701 5698 5695 5692 5689 5686 5682 5679 5675 5672 5669 5665 5662 5659 5655 5652 5649 5645 5642 5639 5636 5634 5631 5628 5626 5624 5623 5622
5713 5711 5710 5708 5706 5704 5702 5699 5697 5694 5692 5689 5686 5683 5680 5677 5673 5670 5667 5663 5660 5656 5653 5649 5646 5642 5639 5636 5632 5629 5626 5623 5620 5617 5614 5612 5610 5609
5702 5701 5700 5698 5696 5694 5692 5690 5688 5685 5683 5680 5677 5674 5671 5668 5665 5661 5658 5654 5651 5647 5644 5640 5636 5633 5629 5625 5621 5617 5614 5611 5607 5604 5601 5599 5597 5595
5692 5691 5690 5688 5686 5685 5683 5681 5679 5676 5674 5671 5668 5665 5662 5659 5655 5652 5649 5645 5642 5638 5634 5630 5626 5622 5617 5613 5609 5605 5601 5598 5594 5591 5588 5585 5582 5580
5682 5681 5680 5678 5677 5675 5673 5671 5669 5667 5665 5662 5659 5656 5653 5650 5647 5643 5639 5636 5632 5627 5623 5619 5615 5611 5606 5601 5597 5593 5589 5584 5580 5577 5573 5570 5567 5564
5672 5671 5670 5669 5667 5666 5664 5662 5660 5658 5655 5653 5650 5647 5644 5640 5637 5634 5630 5626 5621 5617 5612 5608 5603 5599 5594 5589 5584 5580 5575 5571 5566 5562 5558 5554 5551 5548
5662 5661 5661 5659 5658 5657 5655 5653 5651 5649 5646 5643 5641 5638 5634 5631 5627 5624 5620 5615 5611 5606 5601 5596 5591 5586 5581 5575 5570 5566 5561 5556 5551 5547 5542 5538 5535 5532
5652 5652 5651 5650 5649 5647 5646 5644 5642 5640 5637 5634 5631 5628 5625 5621 5617 5613 5609 5605 5600 5595 5590 5585 5579 5573 5567 5561 5556 5551 5546 5541 5536 5532 5527 5522 5518 5515
5643 5642 5642 5641 5640 5638 5637 5635 5633 5630 5628 5625 5622 5618 5615 5611 5607 5603 5598 5594 5589 5584 5579 5573 5567 5560 5554 5548 5541 5536 5531 5526 5522 5517 5512 5507 5503 5499
5634 5633 5633 5632 5630 5629 5627 5625 5623 5621 5618 5615 5612 5608 5605 5601 5596 5592 5587 5583 5578 5573 5567 5561 5554 5548 5541 5534 5528 5522 5516 5512 5507 5503 5498 5493 5488 5484
5625 5624 5624 5622 5621 5620 5618 5616 5614 5611 5608 5605 5602 5598 5594 5590 5586 5581 5576 5571 5566 5561 5555 5548 5542 5535 5528 5522 5515 5508 5503 5498 5493 5489 5484 5479 5475 5471
5616 5615 5614 5613 5612 5611 5609 5606 5604 5601 5598 5595 5591 5587 5583 5579 5575 5570 5565 5560 5554 5549 5543 5536 5530 5523 5516 5509 5502 5496 5490 5485 5480 5475 5470 5465 5461 5458
5607 5606 5605 5604 5603 5601 5599 5596 5594 5591 5587 5584 5580 5576 5572 5568 5563 5559 5553 5548 5542 5536 5530 5524 5518 5510 5503 5496 5490 5483 5477 5472 5467 5462 5457 5453 5448 5445
5598 5597 5596 5595 5593 5591 5589 5586 5583 5580 5577 5573 5569 5565 5561 5557 5552 5547 5541 5536 5530 5524 5518 5512 5505 5498 5491 5484 5477 5471 5465 5460 5454 5449 5445 5441 5436 5432
5588 5587 5586 5585 5583 5581 5578 5576 5573 5569 5566 5562 5558 5554 5550 5545 5540 5535 5529 5524 5518 5511 5505 5499 5493 5487 5480 5473 5465 5458 5453 5448 5442 5438 5433 5429 5426 5421
5579 5577 5576 5575 5573 5570 5568 5565 5562 5558 5555 5551 5547 5542 5538 5533 5528 5522 5517 5511 5505 5499 5493 5487 5481 5475 5468 5462 5455 5447 5440 5436 5432 5427 5422 5418 5415 5411
5569 5567 5566 5564 5562 5559 5556 5553 5550 5547 5543 5539 5535 5531 5526 5521 5515 5510 5504 5499 5493 5487 5481 5475 5469 5463 5457 5451 5445 5438 5430 5425 5421 5417 5412 5408 5405 5401
5558 5556 5555 5553 5550 5548 5545 5542 5539 5535 5531 5527 5523 5518 5513 5508 5503 5497 5492 5486 5481 5475 5469 5463 5457 5451 5445 5440 5434 5428 5421 5415 5410 5406 5402 5399 5395 5393
5547 5545 5543 5541 5539 5536 5533 5530 5526 5523 5519 5515 5511 5506 5501 5496 5490 5485 5480 5474 5469 5463 5458 5452 5445 5439 5433 5428 5423 5417 5411 5406 5401 5397 5392 5388 5386 5384